Tracking 30102 objects as of 12-Dec-2024
HD Live streaming from Space Station
objects crossing your sky now

STARLINK-5965

Track STARLINK-5965 now!
10-day predictions
STARLINK-5965 is classified as:


NORAD ID: 56915
Int'l Code: 2023-083AR
Perigee: 565.4 km
Apogee: 567.0 km
Inclination: 43.0 °
Period: 95.8 minutes
Semi major axis: 6937 km
RCS: Unknown
Launch date: June 12, 2023
Source: United States (US)
Launch site: AIR FORCE EASTERN TEST RANGE (AFETR)
Your satellite tracking list
Your tracking list is empty




NASA's NSSDC Master Catalog

Two Line Element Set (TLE):
1 56915U 23083AR  24347.47872140 -.00000872  00000-0 -49451-4 0  9991
2 56915  43.0042   6.1740 0001104 265.1505  94.9211 15.02545013 83798
Source of the keplerian elements: AFSPC